Погода в Кулешовке

Россия / Ростовская область     47°04′38″N   39°33′31″E
темп.,
°C
ветер,
м/с
пор.,
м/с
влажн.,
%
обл.,
%
осадки,
мм/ч
давл.,
гПа
погр.,
м
2 июля, сб
сб200:00+21ссв5104820 0.0 1012448
03:00+16ссв510630 0.0 1014418
06:00+16ссв59470 0.0 1015483
09:00+19с79340 0.0 10161216
12:00+24с79300 0.0 10152139
15:00+27ссз810246 0.0 10142823
18:00+25ссз810265 0.0 10152705
21:00+20ссз474311 0.0 1016131
3 июля, вс
вс300:00+16ссз37610 0.0 1017123
03:00+15ссз49700 0.0 1016192
06:00+16ссз410660 0.0 1017292
09:00+24с57350 0.0 10161835
12:00+28с57255 0.0 10152751
15:00+27с773081 0.0 10152285
18:00+27с583016 0.0 10152545
21:00+23ссз363897 0.0 1016116
4 июля, пн
пн400:00+19ссз22525 0.0 101613
03:00+18ссз22615 0.0 101521
06:00+20сз24595 0.0 1015137
09:00+27сз46440 0.0 10151502
12:00+30ссз573191 0.0 10142662
15:00+32сз68264 0.0 10132924
18:00+30з65323 0.0 1012844
21:00+25сз355791 0.0 1013101
5 июля, вт
вт500:00+23св4114914 0.0 1015303
03:00+19св49590 0.0 1015188
06:00+20св47590 0.0 1016219
09:00+26св56350 0.0 10171488
12:00+30св55240 0.0 10162292
15:00+32всв55180 0.0 10152748
18:00+31всв55180 0.0 10142868
21:00+24св49310 0.0 1016164
6 июля, ср
ср600:00+21в47400 0.0 1017105
03:00+19всв46460 0.0 101795
06:00+21в36410 0.0 1017141
09:00+29вюв56240 0.0 10172183
12:00+32в66200 0.0 10162735
15:00+34в56160 0.0 10153095
18:00+34в56150 0.0 10143223
21:00+26вюв510270 0.0 1015196